Terminal Aerodrome Forecast
Issued by NWS

Home | Current Version | Previous Version | Text Only | Print | Product List | Glossary On
Versions: 1 2 3 4 5 6 7 8 9 10 11 12 13 14 15 16 17 18
000
FTUS45 KFGZ 261728
TAFSEZ
TAF
KSEZ 261728Z 2618/2718 04008KT P6SM SCT100 BKN150
     FM262100 VRB05KT P6SM SCT080 BKN100
      TEMPO 2621/2701 4SM TSRA BKN080CB
     FM270400 03008KT P6SM BKN150=

USA.gov is the U.S. government's official web portal to all federal, state and local government web resources and services.